Saint Bonnet de Bellac- Haute Vienne - France
Donnes mto: lundi, 02/04/2012
Date Horaire Temp. E. Hum. E. P.atmo. Pluie Vent Direction Direction Ensoleilleme Solaire P. de rose Temp au vent Rafales
02/04/2012 00:00 7,1 C 57 % 1010,0 hPa 0,0 mm 0,0 km/h (0 Bft) NE 45 0 min 0 W/m -0,8 C 7,1 C 0,0 km/h (0 Bft)
02/04/2012 00:10 6,9 C 57 % 1009,9 hPa 0,0 mm 2,9 km/h (1 Bft) E-NE 67 0 min 0 W/m -1,0 C 6,9 C 6,8 km/h (2 Bft)
02/04/2012 00:20 6,9 C 57 % 1010,0 hPa 0,0 mm 2,5 km/h (1 Bft) NE 45 0 min 0 W/m -1,0 C 6,9 C 4,0 km/h (1 Bft)
02/04/2012 00:30 6,8 C 57 % 1009,9 hPa 0,0 mm 4,3 km/h (1 Bft) NE 45 0 min 0 W/m -1,1 C 6,8 C 6,8 km/h (2 Bft)
02/04/2012 00:40 6,8 C 57 % 1009,9 hPa 0,0 mm 1,8 km/h (1 Bft) NE 45 0 min 0 W/m -1,1 C 6,8 C 4,3 km/h (1 Bft)
02/04/2012 00:50 6,7 C 57 % 1009,8 hPa 0,0 mm 1,8 km/h (1 Bft) NE 45 0 min 0 W/m -1,2 C 6,7 C 4,3 km/h (1 Bft)
02/04/2012 01:00 6,4 C 57 % 1009,7 hPa 0,0 mm 2,9 km/h (1 Bft) N-NE 22 0 min 0 W/m -1,5 C 6,4 C 4,3 km/h (1 Bft)
02/04/2012 01:10 6,3 C 57 % 1009,6 hPa 0,0 mm 1,1 km/h (1 Bft) E-NE 67 0 min 0 W/m -1,6 C 6,3 C 2,9 km/h (1 Bft)
02/04/2012 01:20 6,0 C 58 % 1009,4 hPa 0,0 mm 3,2 km/h (1 Bft) N-NE 22 0 min 0 W/m -1,6 C 6,0 C 5,8 km/h (2 Bft)
02/04/2012 01:30 5,8 C 58 % 1009,4 hPa 0,0 mm 2,9 km/h (1 Bft) N-NE 22 0 min 0 W/m -1,8 C 5,8 C 3,6 km/h (1 Bft)
02/04/2012 01:40 5,6 C 58 % 1009,3 hPa 0,0 mm 3,6 km/h (1 Bft) NE 45 0 min 0 W/m -2,0 C 5,6 C 6,1 km/h (2 Bft)
02/04/2012 01:50 5,4 C 59 % 1009,3 hPa 0,0 mm 0,0 km/h (0 Bft) NE 45 0 min 0 W/m -2,0 C 5,4 C 3,2 km/h (1 Bft)
02/04/2012 02:00 5,2 C 59 % 1009,2 hPa 0,0 mm 1,1 km/h (1 Bft) N-NE 22 0 min 0 W/m -2,1 C 5,2 C 4,0 km/h (1 Bft)
02/04/2012 02:10 5,0 C 60 % 1009,2 hPa 0,0 mm 2,9 km/h (1 Bft) N-NE 22 0 min 0 W/m -2,1 C 5,0 C 4,3 km/h (1 Bft)
02/04/2012 02:20 4,9 C 60 % 1009,1 hPa 0,0 mm 1,8 km/h (1 Bft) N-NE 22 0 min 0 W/m -2,2 C 4,9 C 4,3 km/h (1 Bft)
02/04/2012 02:30 4,9 C 60 % 1009,0 hPa 0,0 mm 2,9 km/h (1 Bft) N-NE 22 0 min 0 W/m -2,2 C 4,9 C 4,3 km/h (1 Bft)
02/04/2012 02:40 4,8 C 60 % 1008,9 hPa 0,0 mm 3,2 km/h (1 Bft) N-NE 22 0 min 0 W/m -2,3 C 4,8 C 4,3 km/h (1 Bft)
02/04/2012 02:50 4,8 C 60 % 1008,7 hPa 0,0 mm 3,2 km/h (1 Bft) NE 45 0 min 0 W/m -2,3 C 4,8 C 5,8 km/h (2 Bft)
02/04/2012 03:02 4,7 C 60 % 1008,7 hPa 0,0 mm 2,2 km/h (1 Bft) N-NE 22 0 min 0 W/m -2,4 C 4,7 C 4,3 km/h (1 Bft)
02/04/2012 03:10 4,6 C 60 % 1008,6 hPa 0,0 mm 3,2 km/h (1 Bft) N-NE 22 0 min 0 W/m -2,5 C 4,6 C 5,8 km/h (2 Bft)
02/04/2012 03:20 4,5 C 61 % 1008,5 hPa 0,0 mm 2,5 km/h (1 Bft) NE 45 0 min 0 W/m -2,4 C 4,5 C 3,2 km/h (1 Bft)
02/04/2012 03:30 4,3 C 61 % 1008,3 hPa 0,0 mm 2,9 km/h (1 Bft) N-NE 22 0 min 0 W/m -2,5 C 4,3 C 4,0 km/h (1 Bft)
02/04/2012 03:40 4,2 C 61 % 1008,3 hPa 0,0 mm 1,1 km/h (1 Bft) N 360 0 min 0 W/m -2,6 C 4,2 C 4,3 km/h (1 Bft)
02/04/2012 03:50 3,9 C 61 % 1008,2 hPa 0,0 mm 2,2 km/h (1 Bft) NE 45 0 min 0 W/m -2,9 C 3,9 C 3,6 km/h (1 Bft)
02/04/2012 04:00 3,7 C 62 % 1008,1 hPa 0,0 mm 1,4 km/h (1 Bft) N-NE 22 0 min 0 W/m -2,9 C 3,7 C 1,4 km/h (1 Bft)
02/04/2012 04:10 3,4 C 62 % 1008,0 hPa 0,0 mm 0,7 km/h (0 Bft) N-NE 22 0 min 0 W/m -3,2 C 3,4 C 3,2 km/h (1 Bft)
02/04/2012 04:20 3,2 C 62 % 1007,9 hPa 0,0 mm 2,9 km/h (1 Bft) N-NE 22 0 min 0 W/m -3,4 C 3,2 C 4,3 km/h (1 Bft)
02/04/2012 04:30 2,9 C 63 % 1007,8 hPa 0,0 mm 1,1 km/h (1 Bft) N-NE 22 0 min 0 W/m -3,4 C 2,9 C 4,3 km/h (1 Bft)
02/04/2012 04:40 2,8 C 63 % 1007,7 hPa 0,0 mm 0,0 km/h (0 Bft) NE 45 0 min 0 W/m -3,5 C 2,8 C 0,0 km/h (0 Bft)
02/04/2012 04:50 2,6 C 64 % 1007,6 hPa 0,0 mm 0,4 km/h (0 Bft) N-NE 22 0 min 0 W/m -3,5 C 2,6 C 3,6 km/h (1 Bft)
02/04/2012 05:00 2,6 C 65 % 1007,4 hPa 0,0 mm 0,7 km/h (0 Bft) N-NE 22 0 min 0 W/m -3,3 C 2,6 C 4,3 km/h (1 Bft)
02/04/2012 05:10 2,5 C 65 % 1007,4 hPa 0,0 mm 0,7 km/h (0 Bft) N 360 0 min 0 W/m -3,4 C 2,5 C 0,7 km/h (0 Bft)
02/04/2012 05:20 2,4 C 64 % 1007,3 hPa 0,0 mm 0,0 km/h (0 Bft) N 360 0 min 0 W/m -3,7 C 2,4 C 0,0 km/h (0 Bft)
02/04/2012 05:30 2,3 C 65 % 1007,1 hPa 0,0 mm 0,0 km/h (0 Bft) N-NE 22 0 min 0 W/m -3,6 C 2,3 C 0,0 km/h (0 Bft)
02/04/2012 05:40 2,3 C 65 % 1007,1 hPa 0,0 mm 0,0 km/h (0 Bft) N 360 0 min 0 W/m -3,6 C 2,3 C 0,0 km/h (0 Bft)
02/04/2012 05:50 2,3 C 66 % 1007,0 hPa 0,0 mm 0,0 km/h (0 Bft) N 360 0 min 0 W/m -3,4 C 2,3 C 0,0 km/h (0 Bft)
02/04/2012 06:00 2,2 C 66 % 1007,0 hPa 0,0 mm 0,0 km/h (0 Bft) N 360 0 min 0 W/m -3,5 C 2,2 C 0,0 km/h (0 Bft)
02/04/2012 06:10 1,9 C 66 % 1007,0 hPa 0,0 mm 0,0 km/h (0 Bft) N 360 0 min 0 W/m -3,8 C 1,9 C 0,0 km/h (0 Bft)
02/04/2012 06:20 1,8 C 66 % 1006,9 hPa 0,0 mm 0,0 km/h (0 Bft) N 360 0 min 0 W/m -3,9 C 1,8 C 0,0 km/h (0 Bft)
02/04/2012 06:30 1,6 C 67 % 1007,0 hPa 0,0 mm 0,0 km/h (0 Bft) N 360 0 min 0 W/m -3,9 C 1,6 C 0,0 km/h (0 Bft)
02/04/2012 06:40 1,4 C 68 % 1006,9 hPa 0,0 mm 0,0 km/h (0 Bft) NE 45 0 min 0 W/m -3,8 C 1,4 C 0,0 km/h (0 Bft)
02/04/2012 06:50 1,1 C 68 % 1006,8 hPa 0,0 mm 0,0 km/h (0 Bft) N 360 0 min 0 W/m -4,1 C 1,1 C 0,0 km/h (0 Bft)
02/04/2012 07:00 0,9 C 69 % 1006,8 hPa 0,0 mm 0,0 km/h (0 Bft) N 360 0 min 0 W/m -4,1 C 0,9 C 0,0 km/h (0 Bft)
02/04/2012 07:10 0,6 C 69 % 1006,7 hPa 0,0 mm 0,0 km/h (0 Bft) N 360 0 min 0 W/m -4,4 C 0,6 C 0,0 km/h (0 Bft)
02/04/2012 07:20 0,5 C 69 % 1006,7 hPa 0,0 mm 0,0 km/h (0 Bft) N 360 0 min 0 W/m -4,5 C 0,5 C 0,0 km/h (0 Bft)
02/04/2012 07:30 0,3 C 70 % 1006,8 hPa 0,0 mm 0,0 km/h (0 Bft) N 360 0 min 0 W/m -4,5 C 0,3 C 0,0 km/h (0 Bft)
02/04/2012 07:40 0,3 C 71 % 1006,8 hPa 0,0 mm 0,0 km/h (0 Bft) N 360 0 min 0 W/m -4,3 C 0,3 C 0,0 km/h (0 Bft)
02/04/2012 07:50 0,2 C 71 % 1006,9 hPa 0,0 mm 0,0 km/h (0 Bft) N 360 2 min 0 W/m -4,4 C 0,2 C 0,0 km/h (0 Bft)
02/04/2012 08:00 0,3 C 72 % 1006,9 hPa 0,0 mm 0,0 km/h (0 Bft) N 360 2 min 0 W/m -4,1 C 0,3 C 0,0 km/h (0 Bft)
02/04/2012 08:10 0,4 C 72 % 1006,9 hPa 0,0 mm 0,0 km/h (0 Bft) N 360 2 min 0 W/m -4,0 C 0,4 C 0,0 km/h (0 Bft)
02/04/2012 08:20 0,4 C 73 % 1007,0 hPa 0,0 mm 0,0 km/h (0 Bft) N 360 2 min 0 W/m -3,9 C 0,4 C 0,0 km/h (0 Bft)
02/04/2012 08:30 0,5 C 74 % 1007,0 hPa 0,0 mm 0,0 km/h (0 Bft) N 360 2 min 0 W/m -3,6 C 0,5 C 0,0 km/h (0 Bft)
02/04/2012 08:40 0,9 C 75 % 1007,0 hPa 0,0 mm 0,0 km/h (0 Bft) N 360 2 min 0 W/m -3,0 C 0,9 C 0,0 km/h (0 Bft)
02/04/2012 08:50 1,6 C 75 % 1007,1 hPa 0,0 mm 0,0 km/h (0 Bft) E-NE 67 2 min 0 W/m -2,3 C 1,6 C 0,0 km/h (0 Bft)
02/04/2012 09:00 2,6 C 74 % 1007,2 hPa 0,0 mm 0,0 km/h (0 Bft) E 90 2 min 0 W/m -1,6 C 2,6 C 0,0 km/h (0 Bft)
02/04/2012 09:10 3,4 C 74 % 1007,1 hPa 0,0 mm 0,0 km/h (0 Bft) E 90 2 min 0 W/m -0,8 C 3,4 C 0,0 km/h (0 Bft)
02/04/2012 09:20 4,3 C 72 % 1007,1 hPa 0,0 mm 0,0 km/h (0 Bft) E 90 2 min 0 W/m -0,3 C 4,3 C 3,6 km/h (1 Bft)
02/04/2012 09:30 5,3 C 71 % 1007,2 hPa 0,0 mm 0,0 km/h (0 Bft) E-SE 112 2 min 0 W/m 0,5 C 5,3 C 0,0 km/h (0 Bft)
02/04/2012 09:40 6,1 C 69 % 1007,2 hPa 0,0 mm 0,0 km/h (0 Bft) E-SE 112 2 min 0 W/m 0,8 C 6,1 C 0,0 km/h (0 Bft)
02/04/2012 09:50 6,8 C 68 % 1007,3 hPa 0,0 mm 0,4 km/h (0 Bft) E-SE 112 2 min 0 W/m 1,3 C 6,8 C 3,2 km/h (1 Bft)
02/04/2012 10:00 7,6 C 67 % 1007,3 hPa 0,0 mm 0,0 km/h (0 Bft) E-SE 112 2 min 0 W/m 1,9 C 7,6 C 0,0 km/h (0 Bft)
02/04/2012 10:10 8,6 C 66 % 1007,3 hPa 0,0 mm 0,4 km/h (0 Bft) E 90 2 min 0 W/m 2,6 C 8,6 C 3,6 km/h (1 Bft)
02/04/2012 10:20 9,6 C 65 % 1007,3 hPa 0,0 mm 0,0 km/h (0 Bft) E 90 2 min 0 W/m 3,4 C 9,6 C 0,0 km/h (0 Bft)
02/04/2012 10:30 10,7 C 64 % 1007,3 hPa 0,0 mm 0,0 km/h (0 Bft) E 90 2 min 0 W/m 4,2 C 10,7 C 0,0 km/h (0 Bft)
02/04/2012 10:40 11,8 C 62 % 1007,3 hPa 0,0 mm 0,4 km/h (0 Bft) E 90 2 min 0 W/m 4,8 C 11,8 C 3,2 km/h (1 Bft)
02/04/2012 10:50 12,9 C 60 % 1007,4 hPa 0,0 mm 0,4 km/h (0 Bft) E 90 2 min 0 W/m 5,3 C 12,9 C 2,9 km/h (1 Bft)
02/04/2012 11:00 13,9 C 59 % 1007,4 hPa 0,0 mm 0,4 km/h (0 Bft) E 90 2 min 0 W/m 6,0 C 13,9 C 3,6 km/h (1 Bft)
02/04/2012 11:10 15,0 C 57 % 1007,4 hPa 0,0 mm 0,0 km/h (0 Bft) E 90 2 min 0 W/m 6,6 C 15,0 C 0,0 km/h (0 Bft)
02/04/2012 11:20 16,0 C 55 % 1007,4 hPa 0,0 mm 0,0 km/h (0 Bft) N 360 2 min 0 W/m 7,0 C 16,0 C 0,0 km/h (0 Bft)
02/04/2012 11:30 16,6 C 52 % 1007,4 hPa 0,0 mm 1,4 km/h (1 Bft) S 180 2 min 0 W/m 6,7 C 16,6 C 4,3 km/h (1 Bft)
02/04/2012 11:40 17,3 C 49 % 1007,4 hPa 0,0 mm 4,3 km/h (1 Bft) S-SO 202 2 min 0 W/m 6,5 C 17,3 C 8,3 km/h (2 Bft)
02/04/2012 11:50 17,7 C 48 % 1007,3 hPa 0,0 mm 0,0 km/h (0 Bft) O-SO 247 2 min 0 W/m 6,6 C 17,7 C 0,0 km/h (0 Bft)
02/04/2012 12:00 18,3 C 48 % 1007,4 hPa 0,0 mm 0,7 km/h (0 Bft) S 180 2 min 0 W/m 7,1 C 18,3 C 4,0 km/h (1 Bft)
02/04/2012 12:10 18,8 C 47 % 1007,3 hPa 0,0 mm 0,4 km/h (0 Bft) S 180 2 min 0 W/m 7,2 C 18,8 C 3,6 km/h (1 Bft)
02/04/2012 12:20 18,8 C 46 % 1007,3 hPa 0,0 mm 3,6 km/h (1 Bft) S 180 2 min 0 W/m 6,9 C 18,8 C 7,2 km/h (2 Bft)
02/04/2012 12:30 19,1 C 44 % 1007,2 hPa 0,0 mm 6,5 km/h (2 Bft) SO 225 2 min 0 W/m 6,6 C 19,1 C 7,6 km/h (2 Bft)
02/04/2012 12:40 19,1 C 45 % 1007,3 hPa 0,0 mm 4,7 km/h (1 Bft) S-SE 157 2 min 0 W/m 6,9 C 19,1 C 8,6 km/h (2 Bft)
02/04/2012 12:50 19,1 C 42 % 1007,2 hPa 0,0 mm 10,4 km/h (2 Bft) O-SO 247 2 min 0 W/m 5,9 C 19,1 C 15,5 km/h (3 Bft)
02/04/2012 13:00 18,8 C 44 % 1007,2 hPa 0,0 mm 9,4 km/h (2 Bft) S-SO 202 2 min 0 W/m 6,3 C 18,8 C 11,9 km/h (2 Bft)
02/04/2012 13:10 18,6 C 45 % 1007,1 hPa 0,0 mm 7,6 km/h (2 Bft) S-SO 202 2 min 0 W/m 6,4 C 18,6 C 13,7 km/h (3 Bft)
02/04/2012 13:20 18,8 C 46 % 1007,1 hPa 0,0 mm 8,6 km/h (2 Bft) S 180 2 min 0 W/m 6,9 C 18,8 C 12,2 km/h (2 Bft)
02/04/2012 13:30 19,2 C 46 % 1007,0 hPa 0,0 mm 3,6 km/h (1 Bft) SO 225 2 min 0 W/m 7,3 C 19,2 C 9,0 km/h (2 Bft)
02/04/2012 13:40 19,3 C 45 % 1006,9 hPa 0,0 mm 6,5 km/h (2 Bft) S-SO 202 2 min 0 W/m 7,1 C 19,3 C 9,4 km/h (2 Bft)
02/04/2012 13:50 19,5 C 45 % 1006,9 hPa 0,0 mm 4,3 km/h (1 Bft) S-SO 202 2 min 0 W/m 7,2 C 19,5 C 7,6 km/h (2 Bft)
02/04/2012 14:00 19,5 C 44 % 1006,8 hPa 0,0 mm 4,3 km/h (1 Bft) O-SO 247 2 min 0 W/m 6,9 C 19,5 C 8,3 km/h (2 Bft)
02/04/2012 14:10 19,4 C 39 % 1006,8 hPa 0,0 mm 6,8 km/h (2 Bft) O-SO 247 2 min 0 W/m 5,1 C 19,4 C 7,9 km/h (2 Bft)
02/04/2012 14:20 19,5 C 40 % 1006,8 hPa 0,0 mm 11,2 km/h (2 Bft) S-SO 202 2 min 0 W/m 5,5 C 19,5 C 17,3 km/h (3 Bft)
02/04/2012 14:30 19,5 C 40 % 1006,6 hPa 0,0 mm 8,6 km/h (2 Bft) S-SO 202 2 min 0 W/m 5,5 C 19,5 C 12,6 km/h (3 Bft)
02/04/2012 14:40 19,6 C 40 % 1006,5 hPa 0,0 mm 4,7 km/h (1 Bft) O-SO 247 2 min 0 W/m 5,6 C 19,6 C 7,9 km/h (2 Bft)
02/04/2012 14:50 19,5 C 41 % 1006,5 hPa 0,0 mm 5,8 km/h (2 Bft) O-SO 247 2 min 0 W/m 5,9 C 19,5 C 14,8 km/h (3 Bft)
02/04/2012 15:00 19,8 C 41 % 1006,3 hPa 0,0 mm 7,2 km/h (2 Bft) S 180 2 min 0 W/m 6,2 C 19,8 C 9,7 km/h (2 Bft)
02/04/2012 15:10 19,8 C 41 % 1006,3 hPa 0,0 mm 5,4 km/h (2 Bft) SO 225 2 min 0 W/m 6,2 C 19,8 C 11,2 km/h (2 Bft)
02/04/2012 15:20 19,9 C 38 % 1006,2 hPa 0,0 mm 1,8 km/h (1 Bft) SO 225 2 min 0 W/m 5,2 C 19,9 C 4,7 km/h (1 Bft)
02/04/2012 15:30 19,9 C 38 % 1006,1 hPa 0,0 mm 4,3 km/h (1 Bft) SO 225 2 min 0 W/m 5,2 C 19,9 C 10,8 km/h (2 Bft)
02/04/2012 15:40 19,8 C 39 % 1006,0 hPa 0,0 mm 2,2 km/h (1 Bft) S-SO 202 2 min 0 W/m 5,4 C 19,8 C 4,3 km/h (1 Bft)
02/04/2012 15:50 19,8 C 39 % 1005,9 hPa 0,0 mm 4,3 km/h (1 Bft) O-SO 247 2 min 0 W/m 5,4 C 19,8 C 9,0 km/h (2 Bft)
02/04/2012 16:00 19,8 C 39 % 1005,7 hPa 0,0 mm 7,9 km/h (2 Bft) S-SO 202 2 min 0 W/m 5,4 C 19,8 C 12,2 km/h (2 Bft)
02/04/2012 16:10 19,9 C 39 % 1005,6 hPa 0,0 mm 0,0 km/h (0 Bft) O 270 2 min 0 W/m 5,5 C 19,9 C 3,2 km/h (1 Bft)
02/04/2012 16:20 20,1 C 38 % 1005,5 hPa 0,0 mm 5,4 km/h (2 Bft) O-SO 247 2 min 0 W/m 5,3 C 20,1 C 13,0 km/h (3 Bft)
02/04/2012 16:30 19,9 C 38 % 1005,4 hPa 0,0 mm 5,0 km/h (1 Bft) O-SO 247 2 min 0 W/m 5,2 C 19,9 C 6,8 km/h (2 Bft)
02/04/2012 16:40 19,9 C 38 % 1005,2 hPa 0,0 mm 1,8 km/h (1 Bft) SO 225 2 min 0 W/m 5,2 C 19,9 C 3,6 km/h (1 Bft)
02/04/2012 16:50 20,0 C 38 % 1005,1 hPa 0,0 mm 7,9 km/h (2 Bft) O-SO 247 2 min 0 W/m 5,2 C 20,0 C 7,9 km/h (2 Bft)
02/04/2012 17:00 20,0 C 38 % 1005,0 hPa 0,0 mm 3,6 km/h (1 Bft) SO 225 2 min 0 W/m 5,2 C 20,0 C 4,3 km/h (1 Bft)
02/04/2012 17:10 20,1 C 38 % 1004,9 hPa 0,0 mm 1,8 km/h (1 Bft) O-SO 247 0 min 0 W/m 5,3 C 20,1 C 4,3 km/h (1 Bft)
02/04/2012 17:20 20,1 C 36 % 1004,8 hPa 0,0 mm 1,4 km/h (1 Bft) SO 225 0 min 0 W/m 4,6 C 20,1 C 6,1 km/h (2 Bft)
02/04/2012 17:30 20,0 C 38 % 1004,7 hPa 0,0 mm 0,4 km/h (0 Bft) S-SO 202 0 min 0 W/m 5,2 C 20,0 C 3,2 km/h (1 Bft)
02/04/2012 17:40 20,2 C 37 % 1004,6 hPa 0,0 mm 6,1 km/h (2 Bft) S-SO 202 0 min 0 W/m 5,0 C 20,2 C 7,6 km/h (2 Bft)
02/04/2012 17:50 20,1 C 38 % 1004,5 hPa 0,0 mm 2,5 km/h (1 Bft) O-NO 292 0 min 0 W/m 5,3 C 20,1 C 2,9 km/h (1 Bft)
02/04/2012 18:00 20,1 C 38 % 1004,4 hPa 0,0 mm 5,8 km/h (2 Bft) S-SO 202 0 min 0 W/m 5,3 C 20,1 C 9,7 km/h (2 Bft)
02/04/2012 18:10 19,8 C 38 % 1004,4 hPa 0,0 mm 5,0 km/h (1 Bft) S 180 0 min 0 W/m 5,1 C 19,8 C 5,0 km/h (1 Bft)
02/04/2012 18:20 19,8 C 38 % 1004,4 hPa 0,0 mm 8,3 km/h (2 Bft) SO 225 0 min 0 W/m 5,1 C 19,8 C 10,1 km/h (2 Bft)
02/04/2012 18:30 19,5 C 39 % 1004,3 hPa 0,0 mm 7,2 km/h (2 Bft) SO 225 2 min 0 W/m 5,2 C 19,5 C 7,2 km/h (2 Bft)
02/04/2012 18:40 19,6 C 39 % 1004,2 hPa 0,0 mm 2,5 km/h (1 Bft) O-SO 247 2 min 0 W/m 5,3 C 19,6 C 7,6 km/h (2 Bft)
02/04/2012 18:50 19,5 C 39 % 1004,3 hPa 0,0 mm 2,2 km/h (1 Bft) SO 225 2 min 0 W/m 5,2 C 19,5 C 8,6 km/h (2 Bft)
02/04/2012 19:00 19,5 C 37 % 1004,3 hPa 0,0 mm 2,2 km/h (1 Bft) SO 225 2 min 0 W/m 4,4 C 19,5 C 4,3 km/h (1 Bft)
02/04/2012 19:10 19,4 C 37 % 1004,2 hPa 0,0 mm 2,2 km/h (1 Bft) O-SO 247 2 min 0 W/m 4,3 C 19,4 C 4,0 km/h (1 Bft)
02/04/2012 19:20 19,2 C 39 % 1004,1 hPa 0,0 mm 0,7 km/h (0 Bft) SO 225 2 min 0 W/m 4,9 C 19,2 C 3,2 km/h (1 Bft)
02/04/2012 19:30 18,9 C 38 % 1004,2 hPa 0,0 mm 0,0 km/h (0 Bft) O-SO 247 2 min 0 W/m 4,3 C 18,9 C 2,9 km/h (1 Bft)
02/04/2012 19:40 18,6 C 38 % 1004,2 hPa 0,0 mm 0,7 km/h (0 Bft) SO 225 2 min 0 W/m 4,0 C 18,6 C 4,0 km/h (1 Bft)
02/04/2012 19:50 18,3 C 39 % 1004,1 hPa 0,0 mm 0,0 km/h (0 Bft) O-SO 247 2 min 0 W/m 4,1 C 18,3 C 0,0 km/h (0 Bft)
02/04/2012 20:00 17,8 C 40 % 1004,1 hPa 0,0 mm 0,0 km/h (0 Bft) SO 225 2 min 0 W/m 4,0 C 17,8 C 0,0 km/h (0 Bft)
02/04/2012 20:10 17,3 C 41 % 1004,2 hPa 0,0 mm 0,0 km/h (0 Bft) SO 225 2 min 0 W/m 3,9 C 17,3 C 0,0 km/h (0 Bft)
02/04/2012 20:20 16,6 C 41 % 1004,2 hPa 0,0 mm 0,0 km/h (0 Bft) N 360 0 min 0 W/m 3,3 C 16,6 C 0,0 km/h (0 Bft)
02/04/2012 20:30 15,8 C 42 % 1004,3 hPa 0,0 mm 0,0 km/h (0 Bft) O 270 0 min 0 W/m 2,9 C 15,8 C 0,0 km/h (0 Bft)
02/04/2012 20:40 15,1 C 43 % 1004,3 hPa 0,0 mm 0,0 km/h (0 Bft) O 270 0 min 0 W/m 2,6 C 15,1 C 0,0 km/h (0 Bft)
02/04/2012 20:50 14,5 C 44 % 1004,4 hPa 0,0 mm 0,0 km/h (0 Bft) O 270 0 min 0 W/m 2,4 C 14,5 C 0,0 km/h (0 Bft)
02/04/2012 21:00 13,9 C 45 % 1004,5 hPa 0,0 mm 0,0 km/h (0 Bft) O 270 0 min 0 W/m 2,2 C 13,9 C 0,0 km/h (0 Bft)
02/04/2012 21:10 13,4 C 46 % 1004,6 hPa 0,0 mm 0,0 km/h (0 Bft) O 270 0 min 0 W/m 2,0 C 13,4 C 0,0 km/h (0 Bft)
02/04/2012 21:20 12,8 C 47 % 1004,6 hPa 0,0 mm 0,0 km/h (0 Bft) O 270 0 min 0 W/m 1,8 C 12,8 C 0,0 km/h (0 Bft)
02/04/2012 21:30 12,3 C 48 % 1004,7 hPa 0,0 mm 0,0 km/h (0 Bft) O 270 0 min 0 W/m 1,6 C 12,3 C 0,0 km/h (0 Bft)
02/04/2012 21:40 11,8 C 49 % 1004,8 hPa 0,0 mm 0,0 km/h (0 Bft) O 270 0 min 0 W/m 1,4 C 11,8 C 0,0 km/h (0 Bft)
02/04/2012 21:50 11,3 C 50 % 1004,7 hPa 0,0 mm 0,0 km/h (0 Bft) O 270 0 min 0 W/m 1,3 C 11,3 C 0,0 km/h (0 Bft)
02/04/2012 22:00 10,9 C 52 % 1004,8 hPa 0,0 mm 0,0 km/h (0 Bft) O 270 0 min 0 W/m 1,4 C 10,9 C 0,0 km/h (0 Bft)
02/04/2012 22:10 10,6 C 52 % 1004,9 hPa 0,0 mm 0,0 km/h (0 Bft) O 270 0 min 0 W/m 1,2 C 10,6 C 0,0 km/h (0 Bft)
02/04/2012 22:20 10,3 C 53 % 1005,0 hPa 0,0 mm 0,0 km/h (0 Bft) O 270 0 min 0 W/m 1,1 C 10,3 C 0,0 km/h (0 Bft)
02/04/2012 22:30 9,9 C 54 % 1005,0 hPa 0,0 mm 0,0 km/h (0 Bft) O 270 0 min 0 W/m 1,0 C 9,9 C 0,0 km/h (0 Bft)
02/04/2012 22:40 9,6 C 55 % 1004,9 hPa 0,0 mm 0,0 km/h (0 Bft) O 270 0 min 0 W/m 1,0 C 9,6 C 0,0 km/h (0 Bft)
02/04/2012 22:50 9,4 C 56 % 1004,8 hPa 0,0 mm 0,0 km/h (0 Bft) O 270 0 min 0 W/m 1,1 C 9,4 C 0,0 km/h (0 Bft)
02/04/2012 23:00 9,3 C 58 % 1004,9 hPa 0,0 mm 0,0 km/h (0 Bft) O 270 0 min 0 W/m 1,5 C 9,3 C 0,0 km/h (0 Bft)
02/04/2012 23:10 9,1 C 57 % 1005,0 hPa 0,0 mm 0,0 km/h (0 Bft) O 270 0 min 0 W/m 1,0 C 9,1 C 0,0 km/h (0 Bft)
02/04/2012 23:20 8,8 C 58 % 1005,0 hPa 0,0 mm 0,0 km/h (0 Bft) O 270 0 min 0 W/m 1,0 C 8,8 C 0,0 km/h (0 Bft)
02/04/2012 23:30 8,6 C 60 % 1005,0 hPa 0,0 mm 0,0 km/h (0 Bft) O 270 0 min 0 W/m 1,3 C 8,6 C 0,0 km/h (0 Bft)
02/04/2012 23:40 8,3 C 60 % 1005,0 hPa 0,0 mm 0,0 km/h (0 Bft) O 270 0 min 0 W/m 1,0 C 8,3 C 0,0 km/h (0 Bft)
02/04/2012 23:50 8,0 C 60 % 1005,0 hPa 0,0 mm 0,0 km/h (0 Bft) O-NO 292 0 min 0 W/m 0,7 C 8,0 C 0,0 km/h (0 Bft)
_ Min-Heure 07:50 17:20 20:00 - 23:50 - - - - 07:30 07:50 23:50
Minimum _ 0,2 C 36 % 1004,1 hPa - 0,0 km/h (0 Bft) - - - - -4,5 C 0,2 C 0,0 km/h (0 Bft)
_ Max-Heure 17:40 08:50 00:20 23:50 14:20 - - 20:10 23:50 13:30 17:40 14:20
Maximum _ 20,2 C 75 % 1010,0 hPa 0,0 mm 11,2 km/h
S-SO (2 Bft)
- - 2 min 0 W/m 7,3 C 20,2 C 17,3 km/h
S-SO (3 Bft)
Moyenne _ 11,1 C 54 % 1006,6 hPa #0,0 mm 2,0 km/h (1 Bft) N - #2:14 h 0 W/m 1,5 C 11,1 C 3,7 km/h (1 Bft)
Saint Bonnet de Bellac- Haute Vienne - France